Other Public Products
Issued by NWS Charleston, SC

Current Version | Previous Version | Graphics & Text | Print | Product List | Glossary On
Versions: 1 2 3 4 5 6 7 8 9 10 11 12 13 14 15 16 17 18 19 20 21 22 23 24 25 26 27 28 29 30 31 32 33 34 35 36 37 38 39 40 41 42 43 44 45 46 47 48 49 50
352 FPUS82 KCHS 110711 OPUCHS TEST...KCHS/KSAV Gateway Observations...TEST National Weather Service Charleston SC 200 AM EST MON DEC 11 2017 NOTE: "fair" indicates few or no clouds below 12,000 feet with no significant weather and/or obstructions to visibility. SCZ050-WAZ558-NCZ071-TXZ119-213-PAZ071-DCZ001-FLZ074-172-MI076- NYZ176-178-MAZ016-IL014-TNZ027-NJZ106-GAZ044-MD014-110800- ...Gateway Observations for Charleston International... CITY SKY/WX TMP DP RH WIND PRES REMARKS Chas Airport CLEAR 36 29 75 W7 30.23F WCI 30 Seattle CLEAR 39 33 79 NE5 30.32S WCI 36 Charlotte CLEAR 31 23 72 SW3 30.14F Dallas DFW CLEAR 44 25 47 S3 30.26S Dallas Love CLEAR 44 29 55 CALM 30.27F Philladelphia CLOUDY 35 28 75 SW5 30.03F WCI 31 Wash National CLOUDY 38 28 67 S6 30.04F WCI 33 Baltimore CLOUDY 36 26 67 W3 30.03R Miami CLEAR 54 40 59 NW8 30.24F Detroit CLOUDY 27 20 75 NW8 30.01S WCI 19 Newark CLOUDY 34 23 64 SW12 30.00F WCI 25 Laguardia CLOUDY 37 21 52 SW14 29.99F WCI 28 J F K CLOUDY 36 25 64 W15 30.02F WCI 27 Boston Logan CLOUDY 33 24 69 SW10 29.95S WCI 25 Ft. Lauderdale CLEAR 51 40 65 NW8 30.23F Chicago O`Hare MOCLDY 27 17 66 CALM 30.06S Chicago Midway PTCLDY 27 18 69 W3 30.07F Houston Bush PTCLDY 43 37 79 SW3 30.34F Houston Hobby PTCLDY 41 37 86 SW5 30.34F Nashville CLEAR 39 25 57 W3 30.17S Atlanta CLEAR 34 28 79 W5 30.22F WCI 30 $$ GAZ044-118-TXZ119-213-NCZ071-DCZ001-MDZ014-506-PAZ021-071-NJZ106- NYZ176-178-MAZ106-OHZ011-021-055-MIZ076-KYZ091-ILZ014-INZ047- MNZ060-ONZ431-110800- ...Gateway Observations for Savannah International... CITY SKY/WX TMP DP RH WIND PRES REMARKS Savannah Arpt CLEAR 33 29 85 SW3 30.28R Atlanta CLEAR 34 28 79 W5 30.22F WCI 30 Charlotte CLEAR 31 23 72 SW3 30.14F Dallas DFW CLEAR 44 25 47 S3 30.26S Houston Bush PTCLDY 43 37 79 SW3 30.34F Wash National CLOUDY 38 28 67 S6 30.04F WCI 33 Wash Dulles CLOUDY 33 26 75 S6 30.02S WCI 28 Baltimore CLOUDY 36 26 67 W3 30.03R Philadelphia CLOUDY 35 28 75 SW5 30.03F WCI 31 Newark CLOUDY 34 23 64 SW12 30.00F WCI 25 Laguardia CLOUDY 37 21 52 SW14 29.99F WCI 28 J F K CLOUDY 36 25 64 W15 30.02F WCI 27 Boston CLOUDY 33 24 69 SW10 29.95S WCI 25 Pittsburg CLOUDY 33 19 56 SW6 29.95S WCI 28 Akron CLOUDY 31 20 63 W10 29.96R WCI 22 Cleveland FLURRIES 31 23 72 W10 30.00R WCI 22 Cincinnati CLEAR 26 22 84 W7 30.08R WCI 18 Columbus CLOUDY 32 24 71 NW13 30.04R WCI 22 Detroit CLOUDY 27 20 75 NW8 30.01S WCI 19 Chicago O`Hare MOCLDY 27 17 66 CALM 30.06S Minneapolis SNOW 26 25 96 S5 29.92F VSB 1/2 WCI 20 Indianapolis CLEAR 25 20 81 W3 30.09S Toronto Canada FLURRIES 23 16 74 N10 29.91R WCI 12 $$

USA.gov is the U.S. government's official web portal to all federal, state and local government web resources and services.